^^
Daily Summary for August 13, 2021 Units:  Metric    English   Both
Daily Weekly Monthly Yearly Custom
  High: Low: Average:
Temperature: 35 °C 19.4 °C 26 °C
Dew Point: 12.2 °C 7.8 °C 9.8 °C
Humidity: 53% 23% 38%
Wind Speed: 25.7km/h 0km/h 6.1km/h
Wind Gust: 25.7km/h - -
Wind- - SSW
Pressure: 1019.2 hPa 1015.8 hPa -
Precipitation: 0 mm    
Historical Graphs
 
 
Tabular Data for August 13, 2021
Time Temperature Dew Point Pressure Wind Wind Speed Wind Gust Humidity Rainfall Rate (Hourly) solar
00:04 23.9 °C 10 °C 1015.8 hPa ESE 3.2 km/h 3.2 km/h 42% 0 mm 0.00 W/m2
00:09 23.9 °C 10 °C 1015.8 hPa ESE 6.4 km/h 3.2 km/h 42% 0 mm 0.00 W/m2
00:14 23.3 °C 10 °C 1015.8 hPa SE 8 km/h 4.8 km/h 42% 0 mm 0.00 W/m2
00:19 23.3 °C 9.4 °C 1015.8 hPa SSE 9.7 km/h 9.7 km/h 41% 0 mm 0.00 W/m2
00:24 23.3 °C 9.4 °C 1015.8 hPa SE 6.4 km/h 3.2 km/h 41% 0 mm 0.00 W/m2
00:29 23.3 °C 9.4 °C 1015.8 hPa SE 6.4 km/h 4.8 km/h 42% 0 mm 0.00 W/m2
00:34 23.3 °C 10 °C 1015.8 hPa Calm     43% 0 mm 0.00 W/m2
00:39 23.3 °C 10 °C 1015.8 hPa SE 3.2 km/h 3.2 km/h 43% 0 mm 0.00 W/m2
00:44 22.8 °C 10 °C 1015.8 hPa SE 3.2 km/h   43% 0 mm 0.00 W/m2
00:49 22.8 °C 9.4 °C 1015.8 hPa Calm   3.2 km/h 43% 0 mm 0.00 W/m2
00:54 22.8 °C 9.4 °C 1015.8 hPa SSE 6.4 km/h 4.8 km/h 43% 0 mm 0.00 W/m2
00:59 22.8 °C 9.4 °C 1015.8 hPa SSE 3.2 km/h 4.8 km/h 43% 0 mm 0.00 W/m2
01:04 22.8 °C 9.4 °C 1015.8 hPa Calm   3.2 km/h 43% 0 mm 0.00 W/m2
01:09 22.2 °C 8.9 °C 1015.8 hPa SSE 3.2 km/h   42% 0 mm 0.00 W/m2
01:14 22.2 °C 8.3 °C 1015.8 hPa SSE 3.2 km/h 3.2 km/h 41% 0 mm 0.00 W/m2
01:19 22.2 °C 8.9 °C 1015.8 hPa Calm     42% 0 mm 0.00 W/m2
01:24 22.2 °C 8.3 °C 1015.8 hPa Calm     41% 0 mm 0.00 W/m2
01:29 22.2 °C 8.3 °C 1015.8 hPa Calm     41% 0 mm 0.00 W/m2
01:34 22.2 °C 8.3 °C 1015.8 hPa Calm     41% 0 mm 0.00 W/m2
01:39 22.2 °C 8.3 °C 1015.8 hPa Calm     41% 0 mm 0.00 W/m2
01:44 21.7 °C 8.3 °C 1015.8 hPa Calm     41% 0 mm 0.00 W/m2
01:49 21.7 °C 7.8 °C 1015.8 hPa Calm     41% 0 mm 0.00 W/m2
01:53 21.7 °C 7.8 °C 1015.8 hPa Calm     41% 0 mm 0.00 W/m2
01:59 21.7 °C 7.8 °C 1015.8 hPa Calm     41% 0 mm 0.00 W/m2
02:04 21.7 °C 8.3 °C 1015.8 hPa Calm     42% 0 mm 0.00 W/m2
02:09 21.7 °C 7.8 °C 1015.8 hPa Calm     42% 0 mm 0.00 W/m2
02:14 21.1 °C 8.3 °C 1015.8 hPa Calm     43% 0 mm 0.00 W/m2
02:19 21.1 °C 8.3 °C 1015.8 hPa Calm     43% 0 mm 0.00 W/m2
02:24 21.1 °C 8.3 °C 1015.8 hPa Calm     43% 0 mm 0.00 W/m2
02:29 21.1 °C 7.8 °C 1015.8 hPa Calm     43% 0 mm 0.00 W/m2
02:34 21.1 °C 8.3 °C 1015.8 hPa Calm     44% 0 mm 0.00 W/m2
02:39 21.1 °C 8.3 °C 1015.8 hPa Calm     44% 0 mm 0.00 W/m2
02:44 21.1 °C 8.3 °C 1015.8 hPa Calm     45% 0 mm 0.00 W/m2
02:49 20.6 °C 8.9 °C 1015.8 hPa Calm     46% 0 mm 0.00 W/m2
02:54 20.6 °C 8.9 °C 1015.8 hPa Calm     46% 0 mm 0.00 W/m2
02:59 20.6 °C 8.9 °C 1015.8 hPa SSE 3.2 km/h   46% 0 mm 0.00 W/m2
03:04 20.6 °C 8.9 °C 1015.8 hPa Calm   3.2 km/h 46% 0 mm 0.00 W/m2
03:09 20.6 °C 8.9 °C 1015.8 hPa SE 3.2 km/h 1.6 km/h 46% 0 mm 0.00 W/m2
03:14 20.6 °C 8.9 °C 1015.8 hPa SE 3.2 km/h 3.2 km/h 46% 0 mm 0.00 W/m2
03:19 20.6 °C 8.9 °C 1015.8 hPa SE 3.2 km/h 3.2 km/h 46% 0 mm 0.00 W/m2
03:24 21.1 °C 8.9 °C 1015.8 hPa SE 3.2 km/h 3.2 km/h 46% 0 mm 0.00 W/m2
03:29 21.1 °C 8.3 °C 1015.8 hPa Calm     45% 0 mm 0.00 W/m2
03:34 21.1 °C 9.4 °C 1015.8 hPa Calm     47% 0 mm 0.00 W/m2
03:39 21.1 °C 9.4 °C 1015.8 hPa SE 3.2 km/h   47% 0 mm 0.00 W/m2
03:44 21.1 °C 8.9 °C 1015.8 hPa Calm   3.2 km/h 46% 0 mm 0.00 W/m2
03:49 21.1 °C 8.9 °C 1015.8 hPa Calm     45% 0 mm 0.00 W/m2
03:54 21.7 °C 8.9 °C 1015.8 hPa Calm     45% 0 mm 0.00 W/m2
03:59 21.7 °C 8.9 °C 1015.8 hPa Calm     45% 0 mm 0.00 W/m2
04:04 21.7 °C 8.9 °C 1015.8 hPa Calm     45% 0 mm 0.00 W/m2
04:09 21.7 °C 8.9 °C 1015.8 hPa Calm     45% 0 mm 0.00 W/m2
04:14 21.7 °C 8.9 °C 1015.8 hPa Calm     44% 0 mm 0.00 W/m2
04:19 21.1 °C 8.9 °C 1015.8 hPa Calm     45% 0 mm 0.00 W/m2
04:24 21.1 °C 9.4 °C 1015.8 hPa Calm     46% 0 mm 0.00 W/m2
04:29 21.1 °C 8.9 °C 1015.8 hPa Calm     45% 0 mm 0.00 W/m2
04:34 21.1 °C 8.9 °C 1015.8 hPa Calm     45% 0 mm 0.00 W/m2
04:39 21.1 °C 8.9 °C 1015.8 hPa Calm     46% 0 mm 0.00 W/m2
04:44 21.1 °C 8.9 °C 1015.8 hPa Calm     46% 0 mm 0.00 W/m2
04:49 21.1 °C 8.9 °C 1015.8 hPa Calm     46% 0 mm 0.00 W/m2
04:54 21.1 °C 8.9 °C 1015.8 hPa Calm     46% 0 mm 0.00 W/m2
04:59 21.1 °C 9.4 °C 1015.8 hPa Calm     47% 0 mm 0.00 W/m2
05:04 21.1 °C 8.9 °C 1015.8 hPa Calm     46% 0 mm 0.00 W/m2
05:09 21.1 °C 8.9 °C 1015.8 hPa Calm     46% 0 mm 0.00 W/m2
05:14 20.6 °C 8.9 °C 1015.8 hPa Calm     46% 0 mm 0.00 W/m2
05:19 20.6 °C 8.9 °C 1015.8 hPa Calm     46% 0 mm 0.00 W/m2
05:24 20.6 °C 8.9 °C 1015.8 hPa Calm     47% 0 mm 0.00 W/m2
05:29 20.6 °C 8.9 °C 1015.8 hPa Calm     47% 0 mm 0.00 W/m2
05:34 20.6 °C 8.3 °C 1015.8 hPa Calm     46% 0 mm 0.00 W/m2
05:39 20.6 °C 8.3 °C 1015.8 hPa Calm     46% 0 mm 0.00 W/m2
05:44 20.6 °C 8.3 °C 1015.8 hPa Calm     46% 0 mm 0.00 W/m2
05:49 20.6 °C 8.9 °C 1015.8 hPa Calm     47% 0 mm 0.00 W/m2
05:54 20.6 °C 8.9 °C 1015.8 hPa Calm     47% 0 mm 0.00 W/m2
05:59 20.6 °C 9.4 °C 1015.8 hPa Calm     49% 0 mm 0.00 W/m2
06:04 20 °C 8.9 °C 1015.8 hPa ESE 6.4 km/h 3.2 km/h 49% 0 mm 0.00 W/m2
06:09 20 °C 8.9 °C 1015.8 hPa ESE 6.4 km/h 4.8 km/h 49% 0 mm 0.00 W/m2
06:14 20 °C 9.4 °C 1015.8 hPa Calm   4.8 km/h 50% 0 mm 0.00 W/m2
06:19 20 °C 8.9 °C 1015.8 hPa Calm     49% 0 mm 0.00 W/m2
06:24 20 °C 8.9 °C 1015.8 hPa ESE 3.2 km/h 1.6 km/h 49% 0 mm 0.00 W/m2
06:29 20 °C 8.3 °C 1015.8 hPa ESE 3.2 km/h 3.2 km/h 48% 0 mm 5.00 W/m2
06:34 20 °C 8.3 °C 1015.8 hPa Calm   3.2 km/h 48% 0 mm 9.00 W/m2
06:39 19.4 °C 8.3 °C 1015.8 hPa ESE 3.2 km/h   49% 0 mm 12.00 W/m2
06:44 19.4 °C 8.3 °C 1015.8 hPa ESE 3.2 km/h 3.2 km/h 48% 0 mm 16.00 W/m2
06:49 19.4 °C 8.3 °C 1015.8 hPa Calm     48% 0 mm 19.00 W/m2
06:54 19.4 °C 8.3 °C 1015.8 hPa Calm     49% 0 mm 23.00 W/m2
06:59 19.4 °C 8.3 °C 1015.8 hPa Calm     49% 0 mm 26.00 W/m2
07:04 19.4 °C 8.9 °C 1015.8 hPa Calm     50% 0 mm 32.00 W/m2
07:09 19.4 °C 8.9 °C 1015.8 hPa Calm     50% 0 mm 35.00 W/m2
07:14 19.4 °C 8.9 °C 1015.8 hPa ESE 3.2 km/h 3.2 km/h 50% 0 mm 39.00 W/m2
07:19 19.4 °C 8.9 °C 1015.8 hPa Calm     50% 0 mm 44.00 W/m2
07:24 19.4 °C 8.9 °C 1015.8 hPa ESE 6.4 km/h 1.6 km/h 50% 0 mm 47.00 W/m2
07:29 19.4 °C 9.4 °C 1015.8 hPa Calm   4.8 km/h 52% 0 mm 53.00 W/m2
07:34 19.4 °C 9.4 °C 1015.8 hPa Calm     52% 0 mm 58.00 W/m2
07:39 19.4 °C 8.9 °C 1015.8 hPa Calm     51% 0 mm 65.00 W/m2
07:44 19.4 °C 8.9 °C 1015.8 hPa Calm     50% 0 mm 70.00 W/m2
07:49 19.4 °C 9.4 °C 1015.8 hPa Calm     53% 0 mm 77.00 W/m2
07:54 19.4 °C 9.4 °C 1015.8 hPa Calm     53% 0 mm 81.00 W/m2
07:59 20 °C 9.4 °C 1015.8 hPa Calm     52% 0 mm 84.00 W/m2
08:04 20 °C 9.4 °C 1019.2 hPa Calm     52% 0 mm 88.00 W/m2
08:09 20 °C 9.4 °C 1019.2 hPa Calm     52% 0 mm 95.00 W/m2
08:14 20 °C 9.4 °C 1019.2 hPa SSE 9.7 km/h 3.2 km/h 51% 0 mm 105.00 W/m2
08:19 20.6 °C 9.4 °C 1019.2 hPa SSE 3.2 km/h 9.7 km/h 50% 0 mm 104.00 W/m2
08:23 20.6 °C 9.4 °C 1019.2 hPa South 6.4 km/h 3.2 km/h 49% 0 mm 113.00 W/m2
08:29 20.6 °C 8.9 °C 1019.2 hPa SSW 9.7 km/h 4.8 km/h 47% 0 mm 176.00 W/m2
08:34 21.1 °C 8.9 °C 1019.2 hPa SSW 9.7 km/h 9.7 km/h 46% 0 mm 190.00 W/m2
08:39 21.1 °C 9.4 °C 1019.2 hPa SSW 3.2 km/h 4.8 km/h 47% 0 mm 190.00 W/m2
08:44 21.7 °C 9.4 °C 1019.2 hPa Calm   3.2 km/h 46% 0 mm 295.00 W/m2
08:49 21.7 °C 8.9 °C 1019.2 hPa Calm     45% 0 mm 295.00 W/m2
08:54 21.7 °C 8.9 °C 1019.2 hPa SSW 3.2 km/h 1.6 km/h 44% 0 mm 316.00 W/m2
08:59 22.2 °C 9.4 °C 1019.2 hPa South 6.4 km/h 3.2 km/h 44% 0 mm 334.00 W/m2
09:04 22.2 °C 9.4 °C 1019.2 hPa South 6.4 km/h 4.8 km/h 44% 0 mm 346.00 W/m2
09:09 22.8 °C 9.4 °C 1019.2 hPa South 6.4 km/h 4.8 km/h 44% 0 mm 364.00 W/m2
09:14 23.3 °C 9.4 °C 1019.2 hPa South 3.2 km/h 4.8 km/h 42% 0 mm 378.00 W/m2
09:19 23.3 °C 10 °C 1019.2 hPa South 3.2 km/h 3.2 km/h 43% 0 mm 396.00 W/m2
09:24 23.9 °C 9.4 °C 1019.2 hPa South 3.2 km/h 3.2 km/h 41% 0 mm 415.00 W/m2
09:29 23.9 °C 10 °C 1019.2 hPa Calm   3.2 km/h 42% 0 mm 434.00 W/m2
09:34 24.4 °C 10.6 °C 1019.2 hPa South 3.2 km/h   43% 0 mm 452.00 W/m2
09:39 24.4 °C 10.6 °C 1019.2 hPa South 3.2 km/h 3.2 km/h 41% 0 mm 468.00 W/m2
09:44 25 °C 11.1 °C 1019.2 hPa South 3.2 km/h 3.2 km/h 42% 0 mm 480.00 W/m2
09:49 25.6 °C 11.1 °C 1019.2 hPa South 3.2 km/h 3.2 km/h 41% 0 mm 496.00 W/m2
09:54 26.1 °C 11.7 °C 1019.2 hPa Calm   3.2 km/h 41% 0 mm 508.00 W/m2
09:59 26.1 °C 11.1 °C 1019.2 hPa ESE 9.7 km/h 4.8 km/h 39% 0 mm 517.00 W/m2
10:04 26.7 °C 11.1 °C 1019.2 hPa SSE 6.4 km/h 9.7 km/h 38% 0 mm 524.00 W/m2
10:09 27.2 °C 11.1 °C 1019.2 hPa SSW 9.7 km/h 6.4 km/h 37% 0 mm 527.00 W/m2
10:14 27.2 °C 11.1 °C 1019.2 hPa SW 8 km/h 9.7 km/h 36% 0 mm 555.00 W/m2
10:19 27.8 °C 11.1 °C 1019.2 hPa SW 9.7 km/h 9.7 km/h 35% 0 mm 566.00 W/m2
10:24 28.3 °C 11.1 °C 1019.2 hPa SW 6.4 km/h 4.8 km/h 35% 0 mm 584.00 W/m2
10:29 28.3 °C 10.6 °C 1019.2 hPa SSE 9.7 km/h 3.2 km/h 34% 0 mm 599.00 W/m2
10:34 28.9 °C 10.6 °C 1019.2 hPa SSE 6.4 km/h 9.7 km/h 32% 0 mm 610.00 W/m2
10:39 29.4 °C 10.6 °C 1019.2 hPa SW 9.7 km/h 4.8 km/h 31% 0 mm 629.00 W/m2
10:44 29.4 °C 11.1 °C 1019.2 hPa SW 3.2 km/h 9.7 km/h 32% 0 mm 640.00 W/m2
10:49 30 °C 10.6 °C 1019.2 hPa SW 6.4 km/h 3.2 km/h 30% 0 mm 645.00 W/m2
10:54 30.6 °C 10.6 °C 1015.8 hPa SW 3.2 km/h 4.8 km/h 30% 0 mm 659.00 W/m2
10:59 30.6 °C 11.1 °C 1015.8 hPa SW 3.2 km/h 3.2 km/h 31% 0 mm 664.00 W/m2
11:04 31.1 °C 11.1 °C 1015.8 hPa Calm   3.2 km/h 30% 0 mm 671.00 W/m2
11:09 31.1 °C 11.1 °C 1015.8 hPa SSW 3.2 km/h 1.6 km/h 30% 0 mm 686.00 W/m2
11:14 31.7 °C 10.6 °C 1015.8 hPa SSW 6.4 km/h 3.2 km/h 28% 0 mm 689.00 W/m2
11:19 31.7 °C 10.6 °C 1015.8 hPa SSW 6.4 km/h 4.8 km/h 27% 0 mm 698.00 W/m2
11:24 31.7 °C 10.6 °C 1015.8 hPa SW 14.5 km/h 4.8 km/h 27% 0 mm 705.00 W/m2
11:29 32.2 °C 10.6 °C 1015.8 hPa SSE 9.7 km/h 14.5 km/h 27% 0 mm 708.00 W/m2
11:34 32.2 °C 10.6 °C 1015.8 hPa West 9.7 km/h 9.7 km/h 26% 0 mm 714.00 W/m2
11:39 32.2 °C 11.1 °C 1015.8 hPa SE 11.3 km/h 11.3 km/h 27% 0 mm 719.00 W/m2
11:44 32.2 °C 10.6 °C 1015.8 hPa WSW 11.3 km/h 11.3 km/h 26% 0 mm 729.00 W/m2
11:49 32.8 °C 10 °C 1015.8 hPa West 11.3 km/h 11.3 km/h 25% 0 mm 731.00 W/m2
11:54 32.8 °C 10 °C 1015.8 hPa SW 9.7 km/h 11.3 km/h 25% 0 mm 744.00 W/m2
11:59 32.8 °C 10 °C 1015.8 hPa WSW 9.7 km/h 9.7 km/h 25% 0 mm 751.00 W/m2
12:04 32.8 °C 10 °C 1015.8 hPa West 14.5 km/h 9.7 km/h 25% 0 mm 751.00 W/m2
12:09 32.8 °C 10 °C 1015.8 hPa WSW 14.5 km/h 14.5 km/h 24% 0 mm 758.00 W/m2
12:14 32.8 °C 10.6 °C 1015.8 hPa SSW 14.5 km/h 14.5 km/h 25% 0 mm 756.00 W/m2
12:19 33.3 °C 10 °C 1015.8 hPa West 14.5 km/h 14.5 km/h 24% 0 mm 759.00 W/m2
12:24 32.8 °C 8.9 °C 1015.8 hPa WSW 20.9 km/h 20.9 km/h 23% 0 mm 765.00 W/m2
12:29 32.8 °C 8.9 °C 1015.8 hPa West 25.7 km/h 16.1 km/h 23% 0 mm 765.00 W/m2
12:34 32.8 °C 8.9 °C 1015.8 hPa West 25.7 km/h 25.7 km/h 23% 0 mm 766.00 W/m2
12:39 32.8 °C 8.9 °C 1015.8 hPa West 20.9 km/h 20.9 km/h 23% 0 mm 765.00 W/m2
12:44 32.8 °C 8.9 °C 1015.8 hPa WSW 25.7 km/h 20.9 km/h 23% 0 mm 768.00 W/m2
12:49 32.8 °C 10 °C 1015.8 hPa WNW 25.7 km/h 25.7 km/h 25% 0 mm 782.00 W/m2
12:54 32.8 °C 9.4 °C 1015.8 hPa WNW 22.5 km/h 22.5 km/h 24% 0 mm 779.00 W/m2
12:59 32.8 °C 9.4 °C 1015.8 hPa SW 22.5 km/h 22.5 km/h 24% 0 mm 779.00 W/m2
13:04 32.2 °C 10 °C 1015.8 hPa West 14.5 km/h 20.9 km/h 25% 0 mm 773.00 W/m2
13:09 32.8 °C 10 °C 1015.8 hPa SSW 11.3 km/h 14.5 km/h 25% 0 mm 775.00 W/m2
13:14 32.8 °C 10 °C 1015.8 hPa WSW 20.9 km/h 12.9 km/h 25% 0 mm 772.00 W/m2
13:19 32.8 °C 10 °C 1015.8 hPa WSW 19.3 km/h 20.9 km/h 25% 0 mm 772.00 W/m2
13:24 32.8 °C 10 °C 1015.8 hPa WSW 20.9 km/h 20.9 km/h 25% 0 mm 770.00 W/m2
13:29 32.8 °C 10.6 °C 1015.8 hPa West 11.3 km/h 11.3 km/h 26% 0 mm 768.00 W/m2
13:34 32.8 °C 10.6 °C 1015.8 hPa SW 14.5 km/h 11.3 km/h 26% 0 mm 766.00 W/m2
13:39 32.8 °C 10.6 °C 1015.8 hPa West 14.5 km/h 14.5 km/h 26% 0 mm 763.00 W/m2
13:44 32.8 °C 10.6 °C 1015.8 hPa WSW 14.5 km/h 14.5 km/h 26% 0 mm 758.00 W/m2
13:49 32.8 °C 11.7 °C 1015.8 hPa SSW 20.9 km/h 14.5 km/h 27% 0 mm 768.00 W/m2
13:54 32.8 °C 10.6 °C 1015.8 hPa West 11.3 km/h 20.9 km/h 25% 0 mm 759.00 W/m2
13:59 32.8 °C 11.1 °C 1015.8 hPa SW 11.3 km/h 11.3 km/h 26% 0 mm 756.00 W/m2
14:04 32.8 °C 10.6 °C 1015.8 hPa West 14.5 km/h 14.5 km/h 25% 0 mm 759.00 W/m2
14:09 32.8 °C 11.1 °C 1015.8 hPa WNW 9.7 km/h 14.5 km/h 26% 0 mm 756.00 W/m2
14:14 32.8 °C 10.6 °C 1015.8 hPa WSW 20.9 km/h 14.5 km/h 25% 0 mm 754.00 W/m2
14:19 32.8 °C 11.1 °C 1015.8 hPa SW 14.5 km/h 20.9 km/h 26% 0 mm 745.00 W/m2
14:24 32.8 °C 11.1 °C 1015.8 hPa WSW 11.3 km/h 14.5 km/h 26% 0 mm 745.00 W/m2
14:29 33.3 °C 11.1 °C 1015.8 hPa WSW 14.5 km/h 11.3 km/h 26% 0 mm 738.00 W/m2
14:34 33.3 °C 11.1 °C 1015.8 hPa WSW 17.7 km/h 14.5 km/h 26% 0 mm 738.00 W/m2
14:39 32.8 °C 11.1 °C 1015.8 hPa WSW 16.1 km/h 16.1 km/h 26% 0 mm 724.00 W/m2
14:44 33.3 °C 11.1 °C 1015.8 hPa SW 11.3 km/h 14.5 km/h 26% 0 mm 719.00 W/m2
14:49 33.3 °C 11.1 °C 1015.8 hPa WSW 3.2 km/h 3.2 km/h 26% 0 mm 715.00 W/m2
14:54 33.3 °C 11.1 °C 1015.8 hPa West 6.4 km/h 4.8 km/h 26% 0 mm 707.00 W/m2
14:59 33.3 °C 11.7 °C 1015.8 hPa West 14.5 km/h 8 km/h 26% 0 mm 705.00 W/m2
15:04 33.9 °C 11.1 °C 1015.8 hPa WSW 14.5 km/h 14.5 km/h 25% 0 mm 701.00 W/m2
15:09 33.9 °C 11.1 °C 1015.8 hPa WNW 11.3 km/h 11.3 km/h 25% 0 mm 691.00 W/m2
15:14 33.9 °C 11.7 °C 1015.8 hPa East 9.7 km/h 9.7 km/h 26% 0 mm 680.00 W/m2
15:19 34.4 °C 10.6 °C 1015.8 hPa SW 14.5 km/h 8 km/h 24% 0 mm 670.00 W/m2
15:24 34.4 °C 11.7 °C 1015.8 hPa SE 8 km/h 14.5 km/h 25% 0 mm 661.00 W/m2
15:29 34.4 °C 11.7 °C 1015.8 hPa SSW 9.7 km/h 9.7 km/h 25% 0 mm 645.00 W/m2
15:34 34.4 °C 11.1 °C 1015.8 hPa WSW 6.4 km/h 4.8 km/h 24% 0 mm 626.00 W/m2
15:39 34.4 °C 11.1 °C 1015.8 hPa SSW 20.9 km/h 11.3 km/h 24% 0 mm 626.00 W/m2
15:42 34.4 °C 11.7 °C 1015.8 hPa SW 9.7 km/h 20.9 km/h 25% 0 mm 612.00 W/m2
15:49 34.4 °C 11.7 °C 1015.8 hPa SW 9.7 km/h 9.7 km/h 25% 0 mm 598.00 W/m2
15:54 34.4 °C 12.2 °C 1015.8 hPa West 11.3 km/h 9.7 km/h 26% 0 mm 587.00 W/m2
15:59 34.4 °C 11.7 °C 1015.8 hPa South 11.3 km/h 11.3 km/h 25% 0 mm 578.00 W/m2
16:04 35 °C 12.2 °C 1015.8 hPa SSE 11.3 km/h 11.3 km/h 26% 0 mm 568.00 W/m2
16:09 35 °C 11.7 °C 1015.8 hPa WSW 14.5 km/h 11.3 km/h 25% 0 mm 555.00 W/m2
16:14 35 °C 11.7 °C 1015.8 hPa SW 14.5 km/h 14.5 km/h 24% 0 mm 541.00 W/m2
16:19 35 °C 11.1 °C 1015.8 hPa West 14.5 km/h 14.5 km/h 24% 0 mm 526.00 W/m2
16:23 35 °C 11.1 °C 1015.8 hPa SW 14.5 km/h 14.5 km/h 24% 0 mm 513.00 W/m2
16:29 35 °C 11.1 °C 1015.8 hPa West 9.7 km/h 14.5 km/h 24% 0 mm 499.00 W/m2
16:34 35 °C 11.1 °C 1015.8 hPa West 9.7 km/h 4.8 km/h 24% 0 mm 476.00 W/m2
16:39 35 °C 11.7 °C 1015.8 hPa NW 9.7 km/h 9.7 km/h 25% 0 mm 466.00 W/m2
16:44 34.4 °C 11.7 °C 1015.8 hPa West 9.7 km/h 9.7 km/h 25% 0 mm 450.00 W/m2
16:49 35 °C 12.2 °C 1015.8 hPa West 14.5 km/h 9.7 km/h 26% 0 mm 436.00 W/m2
16:54 35 °C 12.2 °C 1015.8 hPa NE 11.3 km/h 14.5 km/h 26% 0 mm 415.00 W/m2
El Dorado Weather
Compliments of Weather Underground - 2 mb